RH
24 25 32 23 21 22 23 23 27 35 27 21 20 17 18 14 15 19 19 18 17 17 22 23 26 27 29 32 35 36 32 32 33 34 32 34 34 33 35 35 33 30 30 31
26 36 30 23 21 22 23 27 36 27 22 26 22 20 19 17 19 24 18 17 18 20 20 22 28 28 30 35 36 34 35 36 36 36 34 34 36 38 39 39 37 34 33 34
28 27 27 24 22 22 24 33 32 30 26 26 29 24 20 22 24 21 24 23 21 22 22 25 30 31 33 35 35 37 38 39 39 38 37 36 36 38 40 41 42 42 42 41
28 27 28 30 24 27 26 28 32 33 33 39 35 38 23 24 27 24 30 30 27 26 26 28 32 34 36 35 38 42 43 44 43 43 42 43 44 45 44 45 45 45 41 38
32 31 32 30 28 28 29 26 38 35 46 50 37 44 26 27 30 28 30 31 32 33 31 30 35 36 38 38 42 46 47 48 48 49 49 50 51 51 50 47 46 44 38 38
35 36 35 32 32 28 28 38 42 54 56 70 41 41 30 30 32 32 34 36 37 38 38 35 36 39 41 42 45 49 51 52 54 55 58 60 62 63 63 60 55 52 52 51
46 41 39 35 34 35 38 47 53 75 86 77 42 38 36 36 35 34 39 39 42 45 46 45 41 43 44 47 49 51 53 56 58 60 62 66 71 74 75 73 70 67 66 66
44 48 42 42 40 37 43 51 49 67 62 58 47 45 36 30 33 40 37 42 48 54 57 57 49 46 46 48 50 52 55 61 62 64 67 78 82 81 81 82 83 79 76 78
46 45 47 49 48 44 54 53 50 54 52 58 46 41 39 37 39 40 45 51 60 63 66 67 60 50 48 49 51 55 60 69 70 71 77 84 95 96 96 97 97 91 88 86
46 50 51 52 54 53 54 55 55 58 85 78 50 44 44 46 48 52 54 60 69 71 76 74 64 56 55 54 53 54 63 70 71 70 77 86 97 97 97 98 97 98 97 78
50 55 55 58 57 59 60 59 58 59 96 93 95 57 48 58 57 60 74 88 85 81 87 83 78 77 73 78 78 69 72 73 72 80 86 94 99 97 98 98 99 98 83 68
54 55 58 59 61 62 65 64 63 74 91 94 97 79 57 56 72 95 89 95 90 88 83 85 85 83 87 90 92 90 92 90 90 93 96 96 97 100 98 98 98 91 69 65
60 63 66 72 68 70 75 92 98 99 99 98 94 83 62 84 98 96 94 85 92 88 89 83 76 86 92 95 98 98 99 98 98 98 97 98 98 97 96 96 95 95 88 54
74 74 70 72 69 73 94 99 98 100 99 93 97 76 72 87 94 88 86 91 87 85 74 64 73 84 91 96 100 100 99 98 97 97 97 97 96 96 96 95 95 94 92 63
87 85 81 79 80 84 97 100 100 100 99 100 88 99 96 98 97 99 99 99 95 90 80 65 61 70 87 100 100 99 98 97 97 96 96 95 95 95 95 95 94 91 60 39
98 97 95 95 98 95 96 95 98 91 88 99 99 100 99 98 100 100 99 99 98 96 66 63 60 62 80 98 98 98 98 96 95 95 95 95 93 86 82 73 57 62 59 41
99 99 99 98 99 99 97 81 77 78 97 100 97 98 99 99 99 100 100 97 95 81 72 77 87 98 97 97 98 97 96 96 95 95 96 96 92 88 86 80 78 57 52 49
99 100 100 98 100 96 75 80 82 81 80 98 99 99 98 98 97 96 95 94 93 93 96 98 94 98 96 95 95 95 95 95 94 94 93 95 96 92 89 92 91 70 56 51
97 100 99 98 98 83 83 87 92 97 96 100 98 99 100 98 95 94 91 89 96 99 98 93 94 95 91 90 90 93 93 94 93 92 92 92 94 95 96 94 94 92 74 62
83 98 99 100 98 96 79 84 91 99 96 95 98 98 96 97 96 95 92 91 91 91 90 93 94 87 84 87 89 87 85 85 83 82 84 84 84 83 81 79 77 76 75 77
91 93 98 98 98 97 97 98 99 97 95 95 95 95 95 94 86 85 88 92 95 93 96 93 92 88 86 84 80 75 70 68 66 68 70 74 77 77 80 84 87 90 91 93
96 98 97 98 98 96 90 96 95 95 95 97 93 94 91 86 87 91 93 92 91 90 87 84 77 73 72 70 65 63 66 68 69 70 75 81 85 90 93 95 96 98 99 100
96 95 96 95 82 95 95 84 94 94 95 94 90 86 93 92 89 85 83 82 77 74 70 64 60 61 64 66 67 64 64 65 68 74 80 86 94 98 100 100 100 100 100 100
99 96 99 100 94 94 91 99 94 94 95 96 93 90 88 85 82 82 80 76 70 66 62 61 61 60 59 59 59 60 60 62 65 70 78 88 95 100 100 100 100 100 100 100
97 97 95 95 96 98 98 96 94 94 94 94 87 79 76 71 69 64 61 59 59 58 56 49 40 31 27 29 33 39 49 53 56 64 72 83 93 97 99 100 100 100 100 100
88 95 96 96 97 96 95 95 94 90 82 75 69 66 63 58 59 59 56 46 30 17 12 11 12 12 13 16 18 29 41 49 56 60 65 68 70 80 94 98 94 100 100 100
Wind_Speed
11 11 7 9 11 11 12 13 14 11 20 26 28 26 22 12 10 15 16 16 17 17 17 17 14 15 14 14 13 12 12 14 15 16 15 14 13 12 12 12 11 10 10 11
11 11 11 13 15 14 14 14 14 18 25 29 27 25 17 8 7 19 9 11 15 18 18 16 16 16 15 15 13 12 13 14 16 17 16 16 16 16 16 15 15 15 15 17
12 16 15 15 17 17 14 14 15 23 28 25 22 21 10 12 11 7 11 12 12 17 18 16 17 17 17 15 14 13 15 16 18 17 17 18 19 19 19 19 18 18 19 20
10 9 13 19 17 18 16 13 20 25 26 9 14 7 15 10 20 2 15 13 13 16 18 18 18 18 17 18 17 16 17 18 19 18 18 18 19 21 22 22 22 22 22 21
14 17 20 19 18 16 14 17 24 25 17 15 8 6 4 11 16 8 21 22 17 16 18 19 19 19 20 20 20 20 20 21 20 19 19 20 21 23 25 26 25 25 26 28
18 17 17 17 20 16 16 21 26 14 15 3 7 10 8 12 15 13 17 19 22 17 17 18 19 21 22 22 24 23 23 23 20 19 21 24 27 30 29 29 28 27 27 29
16 21 15 12 16 14 11 19 7 2 2 6 5 9 25 25 22 15 18 12 20 19 15 18 19 22 24 24 26 27 27 24 23 26 27 29 34 33 31 30 30 29 30 31
10 10 9 14 14 15 17 13 5 5 3 8 20 10 9 4 13 19 11 13 15 17 24 21 20 22 25 28 30 30 29 27 28 29 30 32 33 33 32 32 33 33 33 34
7 9 14 20 19 16 12 9 11 12 20 13 11 15 13 18 19 11 12 12 18 22 19 20 19 20 26 30 32 33 32 31 32 32 32 35 42 38 37 38 34 35 36 37
17 22 19 18 19 19 20 19 8 7 4 6 6 16 11 6 7 15 15 23 29 23 18 15 18 20 23 27 31 35 36 38 39 40 41 46 41 41 40 38 34 36 37 36
19 18 24 24 22 20 19 21 17 12 10 3 4 3 7 15 17 14 19 20 22 24 23 21 19 21 24 29 32 34 39 42 43 47 52 54 45 45 39 37 37 36 36 37
23 21 24 27 26 25 25 21 16 8 4 12 9 16 21 7 10 12 16 22 21 22 30 31 27 25 27 31 35 39 42 45 50 52 55 52 47 45 41 39 35 34 35 36
17 12 13 13 16 16 21 22 22 26 28 26 14 15 13 16 25 33 30 26 23 29 29 30 33 32 29 30 35 39 42 45 48 49 47 44 42 40 38 35 35 35 32 33
28 33 30 31 31 31 31 29 35 32 22 28 34 47 42 36 36 35 36 32 30 29 33 30 29 29 30 32 34 37 41 43 42 40 39 35 33 33 35 36 35 32 30 34
26 38 35 41 42 41 47 39 38 36 43 35 47 31 36 36 43 39 33 27 28 28 28 30 34 35 35 35 34 36 37 36 34 31 31 31 31 32 34 32 31 29 32 35
32 37 36 45 34 40 42 37 37 40 41 45 46 45 38 39 35 32 29 29 31 26 33 34 34 34 34 32 31 29 27 28 28 29 30 31 34 35 33 29 30 32 34 36
38 36 28 38 23 27 30 26 21 23 27 26 27 27 29 32 32 31 32 27 31 34 33 30 30 30 29 26 26 29 30 29 32 33 33 34 33 32 32 33 35 36 35 36
40 41 33 31 24 11 21 21 19 18 19 27 27 27 26 27 29 31 26 34 31 29 28 28 29 28 29 30 32 32 31 34 35 35 35 34 34 34 35 35 35 36 38 37
23 37 29 17 21 28 31 29 24 22 23 22 22 23 24 21 25 27 27 29 29 29 29 30 28 28 30 33 34 35 36 36 36 36 35 35 35 36 36 37 37 38 39 39
14 19 39 23 9 6 20 13 15 15 17 19 22 22 22 20 23 25 27 29 28 29 29 28 29 32 33 34 34 36 36 36 36 36 36 37 38 39 39 39 39 39 39 38
16 22 37 38 19 12 18 19 13 8 11 18 20 21 24 31 33 30 28 27 27 28 28 30 31 34 35 37 38 39 40 40 41 41 41 40 40 41 41 40 39 39 38 37
22 13 8 10 11 10 15 19 14 14 16 18 24 30 29 27 26 26 26 27 28 30 33 35 37 39 41 43 45 45 45 45 45 45 44 43 42 41 41 40 39 38 37 36
15 23 14 13 21 21 21 24 21 19 22 25 23 23 22 22 22 24 26 30 33 36 38 40 43 44 45 46 47 48 49 49 48 46 44 42 41 39 38 37 36 36 35 35
19 26 28 21 17 24 24 20 21 21 21 20 20 20 20 22 25 28 32 36 39 41 43 44 45 46 47 46 46 45 45 45 45 43 41 39 38 36 35 35 35 35 35 34
31 18 20 24 18 15 15 17 20 19 17 16 18 21 25 28 32 35 38 40 42 44 44 45 45 45 44 43 42 41 41 41 41 40 38 37 37 36 35 34 34 34 33 34
33 27 18 15 15 17 20 16 13 13 15 19 22 26 30 34 36 39 40 41 42 42 42 42 42 41 41 41 41 40 40 41 42 41 39 38 38 37 36 35 34 32 33 32
Wind_Direction
337 323 305 298 317 314 312 309 322 314 303 320 327 323 329 307 313 331 321 305 301 298 289 291 291 281 278 276 276 281 293 301 305 310 313 315 315 315 317 319 318 314 314 317
316 312 310 305 316 311 311 325 315 306 317 320 322 321 312 314 335 342 343 311 295 294 302 301 283 278 272 269 270 279 290 296 301 304 307 310 312 313 314 315 313 310 309 309
301 290 293 303 312 312 316 300 301 311 315 321 315 323 313 317 325 349 348 336 320 303 300 299 284 278 270 268 268 275 285 295 297 298 300 304 306 309 309 309 306 304 303 304
303 308 303 303 302 307 304 301 313 316 316 311 304 290 300 298 324 267 355 354 341 320 303 298 288 279 270 267 268 273 282 292 291 291 294 297 300 302 302 303 302 301 303 305
294 300 302 299 302 307 287 308 319 312 305 311 306 237 305 318 306 315 340 337 327 322 315 302 287 277 270 268 268 273 281 289 288 289 291 294 297 298 298 296 297 296 299 302
296 297 295 296 301 297 295 312 322 295 295 271 267 221 252 281 278 298 332 321 324 319 313 307 292 279 272 269 270 274 281 287 284 287 291 296 299 296 289 287 288 292 295 297
301 300 298 295 297 300 295 325 313 308 231 235 259 254 272 275 278 294 308 300 313 317 315 312 302 281 271 270 271 275 282 281 281 289 292 299 300 292 287 284 285 289 294 297
283 285 291 302 298 290 302 301 240 277 286 286 288 246 278 272 274 290 273 302 315 319 313 304 298 286 274 270 273 276 279 273 278 284 292 304 302 292 287 286 286 287 291 295
285 259 292 293 285 281 289 264 269 265 283 274 240 257 249 253 268 259 291 297 312 312 310 303 299 291 277 273 272 272 272 267 275 285 291 298 301 289 281 281 280 284 289 292
271 282 283 287 277 268 266 273 250 227 285 273 247 274 293 197 286 303 306 315 326 315 314 308 296 289 285 284 281 273 268 268 274 282 287 291 299 291 288 280 278 282 286 288
274 275 284 284 280 285 266 253 244 244 223 250 313 264 160 325 314 327 331 327 321 311 313 304 298 287 285 285 285 278 272 274 277 283 285 291 293 291 280 274 276 280 283 288
277 273 269 280 280 274 264 250 248 218 219 237 254 256 263 310 343 306 294 308 303 300 301 306 305 296 283 283 282 278 277 277 279 284 287 295 291 287 273 270 273 282 288 292
275 260 282 291 262 259 258 269 271 258 249 243 247 264 240 275 301 302 295 305 302 301 295 295 300 302 295 286 282 280 278 278 278 283 292 286 278 273 274 280 284 285 292 294
276 270 255 258 267 283 282 280 284 281 251 263 242 270 280 283 284 290 295 294 295 292 305 311 308 301 293 287 283 281 280 279 283 286 284 282 286 291 290 288 286 285 291 292
264 264 264 265 271 274 281 279 277 266 272 251 271 263 282 281 287 290 292 294 295 298 302 304 304 302 297 294 290 286 285 285 284 283 288 292 295 296 293 289 289 294 292 293
273 262 273 277 279 288 285 290 285 279 275 268 272 276 271 275 279 284 284 285 293 303 305 301 298 296 296 294 289 289 288 292 299 302 303 303 302 297 291 289 286 286 287 290
270 267 275 278 285 289 290 291 286 279 270 258 253 247 257 263 271 277 287 300 309 312 308 303 303 298 292 290 291 294 296 297 301 300 297 293 290 286 284 282 283 285 288 293
263 266 267 274 290 266 269 274 265 261 258 243 235 246 259 271 278 285 297 313 314 308 304 302 298 294 296 301 303 300 296 299 301 298 295 292 288 284 281 282 287 291 291 292
255 251 256 251 252 266 266 268 270 265 260 248 251 257 267 275 283 298 308 305 301 297 299 296 297 301 304 304 302 300 300 299 299 297 295 293 290 287 286 287 287 287 288 290
269 251 241 251 242 249 277 264 260 261 250 258 270 276 281 283 305 308 302 300 299 298 296 297 301 304 303 304 305 305 303 301 299 297 294 292 290 290 289 288 287 287 287 287
265 259 239 247 254 258 260 266 263 234 267 276 288 303 311 312 309 309 306 305 302 299 303 303 302 303 303 302 300 299 299 298 296 296 294 293 292 291 290 290 288 287 286 285
273 247 230 252 243 244 269 297 289 276 293 302 307 312 310 309 308 303 302 303 305 305 304 303 303 303 302 301 300 299 299 298 297 297 297 296 294 293 291 288 287 284 283 282
261 254 250 267 270 275 300 297 286 291 297 301 302 303 304 307 307 308 307 305 303 302 302 301 301 301 301 301 301 300 300 299 299 299 299 297 295 294 292 290 287 284 282 281
242 276 271 260 265 293 289 286 300 305 302 305 311 314 310 307 307 304 303 303 303 303 303 302 302 302 302 301 301 301 300 299 298 298 298 298 296 294 292 290 289 287 285 283
276 265 286 285 287 282 290 299 302 304 309 311 312 312 309 306 305 306 305 305 306 306 306 305 305 305 305 304 304 302 300 299 298 299 299 297 295 294 292 290 289 288 287 286
291 297 283 286 292 293 296 299 302 308 312 309 306 305 305 304 306 307 309 311 311 311 311 311 312 311 310 307 305 305 302 300 299 298 297 296 294 293 292 291 288 285 286 284